Terminal Aerodrome Forecast
Issued by NWS

Home | Current Version | Previous Version | Text Only | Print | Product List | Glossary On
Versions: 1 2 3 4 5 6 7 8 9 10 11 12 13 14 15 16 17 18 19 20 21 22 23 24 25 26 27 28
000
FTUS45 KREV 210700 AAA
TAFTVL
TAF AMD
KTVL 210746Z 2108/2206 20010G18KT P6SM BKN040
     FM211100 20006KT P6SM SCT090
     FM211900 03007KT P6SM FEW080 BKN150
     FM220100 VRB03KT P6SM FEW080 BKN120=

USA.gov is the U.S. government's official web portal to all federal, state and local government web resources and services.